Location: Moscow
(55.7500°N, 37.5830°E)
Time: 07:59:01
(UTC+03:00)

Transit 2A - Pass Details

Date: 02 December 2021
Orbit: 591 x 967 km, 66.7° (Epoch: 17 January)

Event Time Altitude Azimuth Distance (km) Brightness Sun altitude
Exits shadow 03:02:50 18° 39° (NE) 2,145 8.7 -44.7°
Drops below altitude 10° 03:04:26 10° 43° (NE) 2,699 9.4 -44.5°
Sets 03:07:07 0° 47° (NE) 3,662 10.3 -44.2°
